Satellite: NOAA-10
Catalog number: 16969
Epoch time:      12277.86841203
Element set:    0087
Inclination:      098.5728 deg
RA of node:       304.9496 deg
Eccentricity:    0.0011415
Arg of perigee:   278.6943 deg
Mean anomaly:     081.2944 deg
Mean motion:   14.27581948 rev/day
Decay rate:       2.17e-06 rev/day^2
Epoch rev:           35537
Checksum:              343

Satellite: NOAA-11
Catalog number: 19531
Epoch time:      12277.75864799
Element set:    0080
Inclination:      098.7281 deg
RA of node:       000.6111 deg
Eccentricity:    0.0010372
Arg of perigee:   276.3263 deg
Mean anomaly:     083.6728 deg
Mean motion:   14.14983143 rev/day
Decay rate:       -3.7e-07 rev/day^2
Epoch rev:           23986
Checksum:              311

Satellite: NOAA-12
Catalog number: 21263
Epoch time:      12277.98224652
Element set:    0575
Inclination:      098.7239 deg
RA of node:       299.1096 deg
Eccentricity:    0.0012989
Arg of perigee:   244.9475 deg
Mean anomaly:     115.0358 deg
Mean motion:   14.25521257 rev/day
Decay rate:        9.1e-07 rev/day^2
Epoch rev:           11205
Checksum:              316

Satellite: MET-3/5
Catalog number: 21655
Epoch time:      12278.84666374
Element set:     519
Inclination:      082.5541 deg
RA of node:       074.7088 deg
Eccentricity:    0.0014010
Arg of perigee:   052.4248 deg
Mean anomaly:     307.8144 deg
Mean motion:   13.17037145 rev/day
Decay rate:       4.44e-06 rev/day^2
Epoch rev:            1632
Checksum:              289

Satellite: MET-2/21
Catalog number: 22782
Epoch time:      12278.63572699
Element set:     544
Inclination:      082.5459 deg
RA of node:       305.6772 deg
Eccentricity:    0.0021772
Arg of perigee:   202.1219 deg
Mean anomaly:     157.9018 deg
Mean motion:   13.83688840 rev/day
Decay rate:        3.9e-07 rev/day^2
Epoch rev:           96430
Checksum:              330

Satellite: OKEAN-4
Catalog number: 23317
Epoch time:      12277.93472133
Element set:    0055
Inclination:      082.5370 deg
RA of node:       289.5239 deg
Eccentricity:    0.0021612
Arg of perigee:   358.0933 deg
Mean anomaly:     002.0198 deg
Mean motion:   14.83983025 rev/day
Decay rate:      1.639e-05 rev/day^2
Epoch rev:           97093
Checksum:              306

Satellite: NOAA-14
Catalog number: 23455
Epoch time:      12277.88634289
Element set:    0057
Inclination:      098.8236 deg
RA of node:       359.9914 deg
Eccentricity:    0.0009920
Arg of perigee:   011.6506 deg
Mean anomaly:     348.4893 deg
Mean motion:   14.13873018 rev/day
Decay rate:        4.0e-08 rev/day^2
Epoch rev:           91615
Checksum:              331

Satellite: NOAA-15
Catalog number: 25338
Epoch time:      12277.88238655
Element set:    0427
Inclination:      098.7003 deg
RA of node:       263.8273 deg
Eccentricity:    0.0010893
Arg of perigee:   147.9559 deg
Mean anomaly:     212.2289 deg
Mean motion:   14.25126022 rev/day
Decay rate:       1.73e-06 rev/day^2
Epoch rev:           74833
Checksum:              320

Satellite: RESURS
Catalog number: 25394
Epoch time:      12277.93862878
Element set:    0215
Inclination:      098.3307 deg
RA of node:       260.5101 deg
Eccentricity:    0.0000844
Arg of perigee:   333.4510 deg
Mean anomaly:     026.6627 deg
Mean motion:   14.24299431 rev/day
Decay rate:        9.7e-07 rev/day^2
Epoch rev:           73988
Checksum:              310

Satellite: FENGYUN1
Catalog number: 25730
Epoch time:      12278.80276133
Element set:     709
Inclination:      098.8524 deg
RA of node:       235.9311 deg
Eccentricity:    0.0021168
Arg of perigee:   046.8409 deg
Mean anomaly:     313.4517 deg
Mean motion:   14.09771062 rev/day
Decay rate:      1.208e-05 rev/day^2
Epoch rev:           69005
Checksum:              293

Satellite: OKEAN-0
Catalog number: 25860
Epoch time:      12278.80521419
Element set:     752
Inclination:      097.9511 deg
RA of node:       239.2948 deg
Eccentricity:    0.0000573
Arg of perigee:   050.7483 deg
Mean anomaly:     309.3776 deg
Mean motion:   14.74327006 rev/day
Decay rate:      1.027e-05 rev/day^2
Epoch rev:           71072
Checksum:              301

Satellite: NOAA-16
Catalog number: 26536
Epoch time:      12277.82024913
Element set:    0918
Inclination:      099.0804 deg
RA of node:       321.5604 deg
Eccentricity:    0.0011322
Arg of perigee:   135.8578 deg
Mean anomaly:     224.3465 deg
Mean motion:   14.12789029 rev/day
Decay rate:       5.14e-06 rev/day^2
Epoch rev:           62037
Checksum:              299

Satellite: NOAA-17
Catalog number: 27453
Epoch time:      12277.89745229
Element set:    0861
Inclination:      098.3285 deg
RA of node:       299.4104 deg
Eccentricity:    0.0011258
Arg of perigee:   193.7303 deg
Mean anomaly:     166.3572 deg
Mean motion:   14.24489578 rev/day
Decay rate:       2.80e-06 rev/day^2
Epoch rev:           53423
Checksum:              335

Satellite: NOAA-18
Catalog number: 28654
Epoch time:      12277.93212952
Element set:    0343
Inclination:      099.0596 deg
RA of node:       236.9971 deg
Eccentricity:    0.0013788
Arg of perigee:   206.8582 deg
Mean anomaly:     153.1851 deg
Mean motion:   14.11709501 rev/day
Decay rate:       3.16e-06 rev/day^2
Epoch rev:           37990
Checksum:              330

